User: anonymous   Login
Location: Unspecified
(0.0000°N, 0.0000°E)
Time: 18:19:00
(UTC+00:00)
Language:

Envisat - Orbit

View from above orbital plane
View from above orbital plane
View from above satellite
View from above satellite

Ground track
Ground track

The orbit data is extracted from the following two-line orbital elements,

1 27386U 02009A   17328.08654574  .00000017  00000-0  19187-4 0  9995
2 27386  98.2121   6.5260 0001466  85.6747 274.4620 14.37909274824054
Epoch (UTC): 24 November 2017 02:04:37
Eccentricity: 0.0001466
inclination: 98.2121°
perigee height: 764 km
apogee height: 766 km
right ascension of ascending node: 6.5260°
argument of perigee: 85.6747°
revolutions per day: 14.37909274
mean anomaly at epoch: 274.4620°
orbit number at epoch: 82405

The dashed part of the orbit path shows where the satellite is in the earth's shadow,  

DLR